CDT,Max TemperatureF,Mean TemperatureF,Min TemperatureF,Max Dew PointF,MeanDew PointF,Min DewpointF,Max Humidity, Mean Humidity, Min Humidity, Max Sea Level PressureIn, Mean Sea Level PressureIn, Min Sea Level PressureIn, Max VisibilityMiles, Mean VisibilityMiles, Min VisibilityMiles, Max Wind SpeedMPH, Mean Wind SpeedMPH, Max Gust SpeedMPH,PrecipitationIn, CloudCover, Events, WindDirDegrees
2011-10-1,91,80,66,73,66,56,100,68,40,30.12,30.06,30.01,10,10,8,17,7,24,0.00,2,,49
2011-10-2,89,72,57,59,56,54,97,58,32,30.17,30.13,30.09,10,10,10,17,7,22,0.00,1,,63
2011-10-3,88,74,60,58,54,50,84,56,29,30.19,30.13,30.10,10,10,10,15,6,23,0.00,0,,88
2011-10-4,90,75,61,63,59,52,78,59,38,30.17,30.10,30.04,10,10,10,15,6,22,0.00,3,,71
2011-10-5,91,77,63,69,63,60,93,66,38,30.07,30.01,29.95,10,10,10,21,6,28,0.00,2,,112
2011-10-6,95,78,64,73,68,64,100,71,38,29.96,29.92,29.86,10,10,9,17,5,23,0.00,2,,124
2011-10-7,95,82,71,77,73,69,100,78,45,29.97,29.94,29.89,10,9,2,23,10,33,0.19,4,Rain,130
2011-10-8,91,84,77,78,73,68,100,76,50,29.96,29.89,29.82,10,10,7,20,11,29,0.00,6,,128
2011-10-9,79,74,69,77,72,66,100,98,83,29.95,29.88,29.81,10,8,1,23,11,31,0.66,6,Rain-Thunderstorm,22
2011-10-10,86,76,68,72,69,63,100,89,49,30.00,29.94,29.88,10,7,1,12,8,,0.00,6,,14
2011-10-11,87,76,66,73,68,62,100,84,44,29.93,29.88,29.83,10,7,2,12,5,,0.01,5,,52
2011-10-12,96,80,64,75,66,55,100,75,25,29.83,29.77,29.70,10,8,2,15,5,20,0.01,2,,153
2011-10-13,96,81,69,75,64,31,100,77,11,29.94,29.87,29.80,10,5,0,17,5,24,0.00,2,Fog,33
2011-10-14,91,73,55,58,48,36,84,45,15,29.99,29.93,29.88,10,10,10,12,6,,0.00,0,Rain,52
2011-10-15,90,74,59,70,56,47,93,59,23,30.04,29.99,29.94,10,10,10,16,7,22,0.00,2,,48
2011-10-16,91,79,68,72,62,46,100,69,22,30.06,30.00,29.93,10,10,9,12,4,18,0.00,2,,76
2011-10-17,93,76,61,74,66,56,100,80,37,29.96,29.86,29.73,10,7,0,14,4,16,0.00,0,Fog,167
2011-10-18,82,73,63,73,50,37,100,50,22,30.12,29.90,29.70,10,10,9,25,12,37,0.00,1,,349
2011-10-19,80,64,48,37,30,24,59,32,14,30.20,30.12,30.06,10,10,10,20,9,26,0.00,0,,334
2011-10-20,86,64,45,58,44,32,68,46,23,30.15,30.06,29.98,10,10,10,22,8,29,0.00,0,,151
2011-10-21,89,72,57,66,62,55,96,69,44,30.12,30.06,30.02,10,10,10,22,9,28,0.00,1,,140
2011-10-22,90,76,64,65,63,60,93,67,38,30.07,30.02,29.95,10,10,10,22,10,28,0.00,1,,141
2011-10-23,91,76,61,67,62,56,97,67,30,30.07,29.98,29.93,10,10,10,20,9,25,0.00,0,,157
2011-10-24,91,75,60,68,63,58,100,72,35,30.16,30.11,30.07,10,10,5,16,4,22,0.00,1,Fog,144
2011-10-25,91,73,57,68,63,57,100,81,35,30.13,30.07,29.97,10,6,1,21,4,26,0.00,1,Fog,147
2011-10-26,91,77,63,67,63,56,100,68,30,29.99,29.90,29.81,10,10,8,21,10,29,0.00,1,,156
2011-10-27,91,78,64,70,64,51,97,69,35,29.97,29.81,29.73,10,10,7,23,10,34,0.00,3,Rain,145
2011-10-28,72,64,54,50,43,39,65,51,35,30.29,30.15,30.00,10,10,10,25,18,31,0.00,4,,352
2011-10-29,72,55,39,44,38,33,86,56,25,30.34,30.24,30.13,10,10,10,13,7,,0.00,0,,41
2011-10-30,82,62,43,53,46,38,82,60,31,30.16,30.10,30.04,10,10,10,14,4,25,0.00,0,,76
2011-10-31,82,66,51,54,51,48,89,62,35,30.22,30.15,30.09,10,10,10,14,4,,0.00,1,,68